M2 PATHFINDER

Last updated on Wed Oct 29 2025 00:03:53 GMT+0000 (Coordinated Universal Time)

1 45727U 20037E 25301.45176436 .00004262 00000+0 32017-3 0 9993 2 45727 97.8171 125.2621 0011322 209.4569 150.6019 15.03101178290665
UTC large
Height (km)
Speed (km/s)
/
Latitude / Longitude
Inclination (degrees)
Orbital Period (minutes)
Azimuth
Elevation
Range (km)
Doppler Factor

Next 0 passes for location: London (51.5072 / 0.1276)

Sorry there are no passes over London.